SCP
0 0 0 0 0 0 0 0 0 1 0 0 0 0 0 0 0 0 0 0 0 0 0 0 0 0 0 0 0 0 0 0 0 0 0 0 0 0 0 0 0 0 0
0 0 0 0 0 0 -0 0 0 0 0 0 0 0 0 0 0 0 0 0 0 0 0 0 0 0 0 0 0 0 1 1 0 0 0 0 0 0 0 0 0 0 0
-0 -0 0 -0 0 0 0 0 0 0 0 0 0 0 0 0 0 0 0 0 0 0 0 0 0 0 0 0 0 0 0 0 0 0 0 0 0 0 0 0 0 0 0
-0 -0 -0 -0 -0 -0 0 0 0 0 0 0 0 0 0 0 0 0 0 0 0 0 0 0 0 0 0 0 0 0 0 1 0 0 0 0 0 0 0 0 0 0 0
0 0 0 0 0 0 0 0 0 0 0 0 0 0 0 0 0 0 0 0 0 0 0 0 0 0 0 0 0 0 0 1 1 0 0 0 0 0 0 0 0 0 0
0 0 0 0 0 0 0 0 0 0 1 0 0 0 0 0 0 0 0 0 0 0 0 0 0 0 0 1 1 1 0 1 1 0 0 0 0 0 0 0 0 0 0
0 0 0 0 0 0 0 0 0 0 0 0 0 0 0 0 0 0 0 0 0 0 0 0 0 0 0 0 0 0 0 0 1 0 0 0 0 0 0 0 0 0 0
0 0 0 0 0 0 0 0 0 0 0 0 0 0 0 0 0 0 0 0 0 0 0 0 0 0 0 0 0 0 0 0 0 0 0 0 0 0 0 0 0 0 -0
0 0 0 0 0 0 0 0 0 0 0 0 0 0 0 0 0 0 0 0 0 0 0 0 0 0 0 0 0 0 0 0 0 0 1 0 0 0 0 0 0 0 0
0 0 0 0 0 0 0 0 0 0 0 0 0 0 0 0 0 0 0 0 0 0 0 0 0 0 0 0 0 0 0 0 0 0 0 0 0 0 0 0 0 0 0
0 0 0 0 0 0 0 0 0 0 0 0 0 0 0 0 0 0 0 0 0 0 0 0 0 0 0 0 0 0 0 0 0 0 0 0 0 0 0 0 0 0 0
0 0 0 0 0 0 0 0 0 0 0 0 0 0 0 0 0 0 0 0 0 0 0 0 0 0 0 0 0 0 0 0 0 0 0 0 0 0 0 0 0 0 0
0 0 0 0 0 0 0 0 0 0 0 0 0 0 0 0 0 0 0 0 0 0 0 0 0 0 0 0 0 0 0 0 0 0 0 0 0 0 0 0 0 0 0
0 0 0 0 0 0 0 0 0 0 0 0 0 0 0 0 0 0 0 0 0 0 0 0 0 0 0 0 0 0 0 0 0 0 0 0 0 0 0 0 0 0 0
0 0 0 0 0 0 0 0 0 0 0 0 0 0 0 0 0 0 0 0 0 0 0 0 0 0 0 0 0 0 0 0 0 0 0 0 0 0 0 0 0 0 0
0 0 0 0 0 0 0 0 0 0 0 0 0 0 0 0 0 0 0 0 0 0 0 0 0 0 0 0 0 0 0 0 0 0 0 0 0 0 0 0 0 0 0
0 0 -0 0 0 0 0 0 0 0 0 0 0 0 0 0 0 0 0 0 0 0 0 0 0 0 0 0 0 0 0 0 0 0 0 0 0 0 0 0 0 0 0
0 0 0 0 0 0 0 0 0 0 0 0 0 0 0 0 0 0 0 0 0 0 0 0 0 0 0 0 0 0 0 0 0 0 0 0 0 0 0 0 0 0 0
0 0 0 0 0 0 0 0 0 0 0 0 0 0 0 0 0 0 0 0 0 0 0 0 0 0 0 0 0 0 0 0 0 0 0 0 0 0 -0 0 0 0 0
-0 -0 -0 -0 -0 0 0 0 0 0 0 0 0 -0 0 0 0 0 0 0 0 0 0 0 0 0 0 0 0 -0 0 0 0 0 0 0 0 0 0 0 0 0 0
-0 -0 -0 -0 -0 0 0 -0 0 0 0 0 0 0 0 0 0 0 0 0 0 0 0 0 0 0 0 0 0 0 -0 0 0 0 0 0 0 0 0 0 0 0 0
-0 -0 -0 -0 0 0 0 -0 -0 -0 0 0 0 0 -0 0 0 0 0 0 -0 0 0 0 0 0 0 0 0 0 0 0 0 0 0 0 0 0 0 0 0 0 0
0 -0 -0 -0 -0 0 0 0 0 -0 -0 0 0 0 0 0 0 0 -0 0 0 0 0 0 0 0 0 0 0 0 -0 0 0 0 0 0 0 0 0 0 0 0 0
0 0 0 0 0 0 0 0 0 0 0 0 0 0 0 0 0 0 0 0 0 -0 -0 -0 -0 -0 0 0 0 0 0 0 -0 0 0 0 0 0 -0 0 0 0 0
0 0 0 0 0 0 0 0 0 0 0 0 0 0 0 0 0 0 0 0 0 0 -0 -0 -0 -0 0 0 0 0 -0 -0 -0 0 0 0 0 0 0 -0 0 0 0
0 0 0 0 -0 0 0 0 0 0 0 0 0 0 0 0 0 0 0 0 0 0 0 0 -0 -0 -0 0 0 0 0 -0 -0 -0 0 0 -0 -0 -0 0 -0 0 0
Wind_Speed_500mb
37 29 15 34 38 18 18 16 23 34 33 30 30 30 27 24 24 28 33 26 42 40 37 37 35 25 26 28 27 25 24 25 25 25 25 25 26 27 29 31 33 35 37
22 16 3 16 21 29 22 23 27 34 30 22 23 25 22 26 31 34 46 52 39 39 41 38 40 47 48 37 33 32 29 29 29 30 32 33 32 32 33 33 35 37 38
15 14 6 17 17 13 17 19 28 35 40 37 30 30 23 23 29 36 41 45 44 45 50 43 45 46 44 35 34 34 37 37 35 38 40 41 41 42 40 39 38 41 41
12 16 12 20 29 32 32 30 30 31 35 42 38 31 28 28 26 30 37 45 49 49 45 55 58 49 46 45 43 42 44 47 48 48 51 44 41 43 44 41 40 41 44
8 12 18 23 26 27 32 33 32 32 29 34 35 36 33 30 28 27 29 34 41 48 53 47 47 47 47 46 47 49 51 52 49 50 46 45 48 49 48 48 48 44 45
13 17 20 26 29 35 39 39 35 25 23 33 38 42 43 40 37 37 37 37 38 46 51 53 56 54 53 53 51 49 47 43 41 41 43 46 50 48 50 51 43 48 51
18 23 22 25 25 29 30 34 40 38 36 38 40 44 45 43 42 39 35 39 45 52 54 62 59 59 61 58 51 44 41 52 42 35 44 47 50 49 48 48 48 54 53
27 29 31 33 33 33 34 37 37 35 32 34 31 38 32 37 39 36 38 43 44 36 34 33 35 37 42 47 58 56 69 54 42 43 46 50 57 50 48 60 59 54 58
38 40 44 45 42 42 43 39 39 39 38 33 31 22 16 12 33 37 47 49 53 49 37 40 29 25 25 27 36 37 44 49 43 43 39 43 51 55 63 58 59 57 55
40 43 46 50 52 50 50 48 45 43 40 41 42 33 34 38 23 23 32 45 49 45 41 39 34 31 36 34 39 34 41 54 64 62 67 57 53 58 53 54 53 53 52
33 31 29 30 33 35 36 39 42 45 45 44 41 41 47 46 43 31 36 26 34 41 34 38 37 42 52 66 80 80 74 64 64 71 73 62 54 50 45 47 50 48 50
30 29 27 28 28 30 28 28 26 25 26 30 33 32 29 28 36 31 31 26 17 29 32 29 29 30 35 32 34 33 30 38 39 39 38 40 46 47 52 51 50 47 50
33 34 32 29 30 35 29 29 24 26 25 24 24 25 24 29 27 31 30 29 18 19 16 17 16 17 20 28 29 28 24 30 31 33 43 43 48 55 54 58 54 49 49
32 32 31 29 28 32 32 26 23 24 25 25 22 20 22 18 10 11 14 12 11 7 12 11 15 20 34 31 35 37 37 40 40 42 46 46 47 46 39 36 42 42 48
31 30 28 27 24 25 28 29 30 31 31 35 34 23 14 10 5 8 10 15 18 15 17 16 33 37 48 43 35 33 33 36 36 34 35 35 34 33 34 36 34 37 36
29 29 26 26 25 28 28 29 30 30 28 29 27 25 21 18 15 13 14 13 15 14 15 25 37 36 31 24 20 25 26 26 27 31 32 28 29 23 20 21 29 33 33
34 33 28 24 22 26 24 30 29 31 30 28 26 24 22 18 17 16 18 23 24 25 24 24 19 26 29 24 16 18 20 21 24 26 29 30 28 25 21 25 26 28 28
35 39 31 22 22 23 24 26 30 33 32 33 30 28 28 28 23 24 23 21 19 19 19 20 17 25 19 23 25 29 32 29 28 26 26 26 27 29 26 25 27 33 29
48 53 48 43 37 34 29 29 39 44 43 39 34 33 30 29 30 27 25 24 22 21 21 22 24 24 23 28 28 35 36 36 28 25 23 20 19 13 17 24 33 34 29
47 47 47 46 46 44 43 40 41 43 47 50 42 29 28 31 31 25 22 21 20 21 23 25 25 28 28 34 33 38 40 39 35 8 9 17 19 14 18 23 30 31 28
43 43 39 38 34 34 33 25 27 37 43 50 44 39 35 34 31 26 23 22 21 27 29 30 35 27 33 34 32 39 44 39 30 19 20 16 22 16 18 26 25 24 24
41 46 45 38 29 31 32 27 19 24 35 42 48 51 46 40 34 30 27 22 26 33 34 31 24 26 30 30 34 37 39 40 41 29 27 26 11 17 24 27 31 23 26
27 34 39 42 39 29 23 25 25 27 38 37 41 43 42 42 40 36 29 28 24 39 35 33 31 30 31 32 35 37 35 35 35 32 26 19 14 21 29 36 36 19 18
16 21 27 39 43 30 26 24 20 21 25 29 35 39 39 38 40 37 28 25 24 27 30 35 33 29 32 31 28 36 33 31 27 24 19 18 25 34 38 32 16 12 12
12 16 21 39 46 34 27 21 18 19 23 28 32 35 36 32 32 35 29 24 25 25 26 30 34 36 37 31 30 32 31 27 33 29 20 22 31 40 36 5 6 11 13
16 16 22 37 38 35 27 24 23 25 23 29 28 31 34 32 33 31 34 35 23 28 32 28 40 41 42 38 30 28 32 21 25 22 15 34 26 40 16 5 20 16 19
Wind_Direction_500mb
295 214 317 232 332 281 294 308 315 326 312 300 288 282 276 254 257 258 241 249 277 271 278 282 273 267 272 279 277 275 270 271 270 270 270 269 269 266 264 260 259 257 258
360 5 159 262 329 338 331 348 333 301 303 295 296 293 279 273 268 254 249 267 269 271 277 272 272 274 283 279 272 273 273 270 275 275 276 274 272 267 260 258 260 260 257
327 21 43 251 281 301 314 281 286 286 288 283 288 287 277 270 267 265 259 259 263 267 274 267 272 281 280 271 275 281 281 280 279 284 287 285 280 276 275 271 269 268 268
353 335 302 265 280 285 288 289 268 264 264 269 283 289 293 290 279 270 268 262 263 265 265 276 278 275 271 271 276 278 286 284 284 292 290 285 284 283 284 282 284 283 284
328 318 307 300 300 287 282 285 277 265 265 270 274 284 280 275 269 269 269 268 266 266 269 268 269 270 273 273 277 280 284 283 285 286 281 281 282 286 286 285 290 295 300
298 276 274 285 287 276 267 270 273 268 268 271 272 277 280 277 273 269 272 277 282 276 271 262 261 263 263 259 254 261 271 275 273 270 277 279 280 282 288 292 290 299 304
276 281 284 285 287 284 281 279 278 283 270 272 286 278 275 272 272 274 275 270 277 276 282 271 270 266 253 254 261 269 295 278 267 271 273 280 274 279 288 288 290 298 299
292 292 291 291 293 289 281 288 296 291 287 296 311 307 304 289 290 275 271 278 277 278 274 260 258 269 271 275 270 275 280 271 279 274 271 269 267 266 290 292 289 290 293
298 296 297 296 293 293 295 296 295 296 299 290 293 309 299 284 287 269 288 292 289 288 289 277 268 273 283 294 290 282 284 278 273 272 280 283 275 275 282 270 276 284 287
314 307 301 298 297 293 289 286 288 292 297 301 294 284 287 299 298 297 287 289 297 291 286 276 268 280 290 297 300 285 282 291 285 280 279 277 269 273 267 269 273 277 278
337 339 337 333 329 326 315 304 296 287 283 286 288 284 279 284 293 285 291 279 284 287 288 294 303 301 293 280 289 292 286 276 272 274 274 276 267 262 262 269 274 276 274
9 13 16 12 16 6 2 359 348 333 314 290 285 286 289 290 289 292 287 300 295 284 298 303 312 312 306 303 298 301 294 286 289 282 273 270 270 275 276 278 279 275 270
21 19 24 24 21 18 18 14 14 14 0 340 320 301 297 299 278 278 295 290 294 304 291 293 295 300 297 309 310 305 296 291 289 278 280 289 291 289 286 280 279 276 272
13 13 17 20 24 27 29 29 26 20 9 357 341 321 311 307 283 276 278 280 300 281 313 301 316 319 315 315 310 301 291 282 284 284 288 291 293 290 285 278 276 267 275
8 12 10 15 25 26 30 33 32 36 26 26 30 25 27 46 31 1 359 357 350 322 318 314 333 323 318 324 329 325 314 300 291 286 283 292 287 284 281 280 281 275 272
357 357 358 4 11 15 27 19 19 24 21 23 20 20 24 21 5 348 331 334 332 322 326 317 318 323 327 335 347 331 325 320 309 294 284 288 281 276 302 308 320 304 294
353 345 345 347 356 3 6 12 14 19 18 18 14 10 4 355 345 333 329 326 326 324 324 322 337 359 14 7 350 350 338 328 315 307 291 286 283 269 276 287 294 289 283
18 28 24 18 12 5 10 24 26 19 12 10 16 18 23 23 17 13 20 32 25 13 354 344 350 347 353 357 357 355 348 333 310 299 300 300 283 267 259 273 286 284 274
52 52 49 50 47 44 43 46 57 55 45 34 26 27 28 26 25 23 29 30 30 25 15 3 357 356 353 345 340 343 342 340 322 296 299 292 291 307 295 302 291 278 278
60 53 53 54 57 58 60 63 60 51 42 30 22 17 11 4 360 6 8 1 1 2 357 351 344 341 342 343 337 341 344 344 346 303 321 296 304 300 306 315 303 283 274
53 52 53 48 47 46 36 34 43 38 34 28 36 34 33 28 22 9 357 7 7 354 343 334 320 342 347 344 346 344 342 343 348 358 330 311 292 299 318 320 316 289 274
56 52 48 39 35 39 29 31 42 35 34 41 47 44 42 37 35 28 25 19 14 9 1 352 350 343 339 338 335 337 338 342 344 344 328 331 304 313 319 322 325 299 278
49 45 39 35 29 24 34 32 47 51 44 41 35 29 25 21 24 29 30 32 44 29 25 11 357 350 342 336 331 333 330 330 330 331 329 330 314 308 312 314 317 299 280
25 33 22 22 21 24 30 43 53 42 39 25 12 7 7 6 357 356 5 14 10 7 9 11 6 354 339 333 322 327 324 323 324 335 328 316 322 318 317 310 302 286 287
19 36 13 15 15 24 26 19 10 9 14 13 4 3 2 0 6 2 358 341 347 345 341 356 360 350 350 341 332 325 323 328 335 341 308 336 327 322 333 331 266 341 301
41 51 17 12 12 21 14 17 17 22 21 11 13 17 19 17 11 5 2 355 355 357 343 339 352 347 342 340 339 334 343 332 342 340 308 331 329 336 326 291 305 293 296
Wind_Speed_850mb
37 29 15 34 38 18 18 16 23 34 33 30 30 30 27 24 24 28 33 26 42 40 37 37 35 25 26 28 27 25 24 25 25 25 25 25 26 27 29 31 33 35 37
22 16 3 16 21 29 22 23 27 34 30 22 23 25 22 26 31 34 46 52 39 39 41 38 40 47 48 37 33 32 29 29 29 30 32 33 32 32 33 33 35 37 38
15 14 6 17 17 13 17 19 28 35 40 37 30 30 23 23 29 36 41 45 44 45 50 43 45 46 44 35 34 34 37 37 35 38 40 41 41 42 40 39 38 41 41
12 16 12 20 29 32 32 30 30 31 35 42 38 31 28 28 26 30 37 45 49 49 45 55 58 49 46 45 43 42 44 47 48 48 51 44 41 43 44 41 40 41 44
8 12 18 23 26 27 32 33 32 32 29 34 35 36 33 30 28 27 29 34 41 48 53 47 47 47 47 46 47 49 51 52 49 50 46 45 48 49 48 48 48 44 45
13 17 20 26 29 35 39 39 35 25 23 33 38 42 43 40 37 37 37 37 38 46 51 53 56 54 53 53 51 49 47 43 41 41 43 46 50 48 50 51 43 48 51
18 23 22 25 25 29 30 34 40 38 36 38 40 44 45 43 42 39 35 39 45 52 54 62 59 59 61 58 51 44 41 52 42 35 44 47 50 49 48 48 48 54 53
27 29 31 33 33 33 34 37 37 35 32 34 31 38 32 37 39 36 38 43 44 36 34 33 35 37 42 47 58 56 69 54 42 43 46 50 57 50 48 60 59 54 58
38 40 44 45 42 42 43 39 39 39 38 33 31 22 16 12 33 37 47 49 53 49 37 40 29 25 25 27 36 37 44 49 43 43 39 43 51 55 63 58 59 57 55
40 43 46 50 52 50 50 48 45 43 40 41 42 33 34 38 23 23 32 45 49 45 41 39 34 31 36 34 39 34 41 54 64 62 67 57 53 58 53 54 53 53 52
33 31 29 30 33 35 36 39 42 45 45 44 41 41 47 46 43 31 36 26 34 41 34 38 37 42 52 66 80 80 74 64 64 71 73 62 54 50 45 47 50 48 50
30 29 27 28 28 30 28 28 26 25 26 30 33 32 29 28 36 31 31 26 17 29 32 29 29 30 35 32 34 33 30 38 39 39 38 40 46 47 52 51 50 47 50
33 34 32 29 30 35 29 29 24 26 25 24 24 25 24 29 27 31 30 29 18 19 16 17 16 17 20 28 29 28 24 30 31 33 43 43 48 55 54 58 54 49 49
32 32 31 29 28 32 32 26 23 24 25 25 22 20 22 18 10 11 14 12 11 7 12 11 15 20 34 31 35 37 37 40 40 42 46 46 47 46 39 36 42 42 48
31 30 28 27 24 25 28 29 30 31 31 35 34 23 14 10 5 8 10 15 18 15 17 16 33 37 48 43 35 33 33 36 36 34 35 35 34 33 34 36 34 37 36
29 29 26 26 25 28 28 29 30 30 28 29 27 25 21 18 15 13 14 13 15 14 15 25 37 36 31 24 20 25 26 26 27 31 32 28 29 23 20 21 29 33 33
34 33 28 24 22 26 24 30 29 31 30 28 26 24 22 18 17 16 18 23 24 25 24 24 19 26 29 24 16 18 20 21 24 26 29 30 28 25 21 25 26 28 28
35 39 31 22 22 23 24 26 30 33 32 33 30 28 28 28 23 24 23 21 19 19 19 20 17 25 19 23 25 29 32 29 28 26 26 26 27 29 26 25 27 33 29
48 53 48 43 37 34 29 29 39 44 43 39 34 33 30 29 30 27 25 24 22 21 21 22 24 24 23 28 28 35 36 36 28 25 23 20 19 13 17 24 33 34 29
47 47 47 46 46 44 43 40 41 43 47 50 42 29 28 31 31 25 22 21 20 21 23 25 25 28 28 34 33 38 40 39 35 8 9 17 19 14 18 23 30 31 28
43 43 39 38 34 34 33 25 27 37 43 50 44 39 35 34 31 26 23 22 21 27 29 30 35 27 33 34 32 39 44 39 30 19 20 16 22 16 18 26 25 24 24
41 46 45 38 29 31 32 27 19 24 35 42 48 51 46 40 34 30 27 22 26 33 34 31 24 26 30 30 34 37 39 40 41 29 27 26 11 17 24 27 31 23 26
27 34 39 42 39 29 23 25 25 27 38 37 41 43 42 42 40 36 29 28 24 39 35 33 31 30 31 32 35 37 35 35 35 32 26 19 14 21 29 36 36 19 18
16 21 27 39 43 30 26 24 20 21 25 29 35 39 39 38 40 37 28 25 24 27 30 35 33 29 32 31 28 36 33 31 27 24 19 18 25 34 38 32 16 12 12
12 16 21 39 46 34 27 21 18 19 23 28 32 35 36 32 32 35 29 24 25 25 26 30 34 36 37 31 30 32 31 27 33 29 20 22 31 40 36 5 6 11 13
16 16 22 37 38 35 27 24 23 25 23 29 28 31 34 32 33 31 34 35 23 28 32 28 40 41 42 38 30 28 32 21 25 22 15 34 26 40 16 5 20 16 19
Wind_Direction_850mb
295 214 317 232 332 281 294 308 315 326 312 300 288 282 276 254 257 258 241 249 277 271 278 282 273 267 272 279 277 275 270 271 270 270 270 269 269 266 264 260 259 257 258
360 5 159 262 329 338 331 348 333 301 303 295 296 293 279 273 268 254 249 267 269 271 277 272 272 274 283 279 272 273 273 270 275 275 276 274 272 267 260 258 260 260 257
327 21 43 251 281 301 314 281 286 286 288 283 288 287 277 270 267 265 259 259 263 267 274 267 272 281 280 271 275 281 281 280 279 284 287 285 280 276 275 271 269 268 268
353 335 302 265 280 285 288 289 268 264 264 269 283 289 293 290 279 270 268 262 263 265 265 276 278 275 271 271 276 278 286 284 284 292 290 285 284 283 284 282 284 283 284
328 318 307 300 300 287 282 285 277 265 265 270 274 284 280 275 269 269 269 268 266 266 269 268 269 270 273 273 277 280 284 283 285 286 281 281 282 286 286 285 290 295 300
298 276 274 285 287 276 267 270 273 268 268 271 272 277 280 277 273 269 272 277 282 276 271 262 261 263 263 259 254 261 271 275 273 270 277 279 280 282 288 292 290 299 304
276 281 284 285 287 284 281 279 278 283 270 272 286 278 275 272 272 274 275 270 277 276 282 271 270 266 253 254 261 269 295 278 267 271 273 280 274 279 288 288 290 298 299
292 292 291 291 293 289 281 288 296 291 287 296 311 307 304 289 290 275 271 278 277 278 274 260 258 269 271 275 270 275 280 271 279 274 271 269 267 266 290 292 289 290 293
298 296 297 296 293 293 295 296 295 296 299 290 293 309 299 284 287 269 288 292 289 288 289 277 268 273 283 294 290 282 284 278 273 272 280 283 275 275 282 270 276 284 287
314 307 301 298 297 293 289 286 288 292 297 301 294 284 287 299 298 297 287 289 297 291 286 276 268 280 290 297 300 285 282 291 285 280 279 277 269 273 267 269 273 277 278
337 339 337 333 329 326 315 304 296 287 283 286 288 284 279 284 293 285 291 279 284 287 288 294 303 301 293 280 289 292 286 276 272 274 274 276 267 262 262 269 274 276 274
9 13 16 12 16 6 2 359 348 333 314 290 285 286 289 290 289 292 287 300 295 284 298 303 312 312 306 303 298 301 294 286 289 282 273 270 270 275 276 278 279 275 270
21 19 24 24 21 18 18 14 14 14 0 340 320 301 297 299 278 278 295 290 294 304 291 293 295 300 297 309 310 305 296 291 289 278 280 289 291 289 286 280 279 276 272
13 13 17 20 24 27 29 29 26 20 9 357 341 321 311 307 283 276 278 280 300 281 313 301 316 319 315 315 310 301 291 282 284 284 288 291 293 290 285 278 276 267 275
8 12 10 15 25 26 30 33 32 36 26 26 30 25 27 46 31 1 359 357 350 322 318 314 333 323 318 324 329 325 314 300 291 286 283 292 287 284 281 280 281 275 272
357 357 358 4 11 15 27 19 19 24 21 23 20 20 24 21 5 348 331 334 332 322 326 317 318 323 327 335 347 331 325 320 309 294 284 288 281 276 302 308 320 304 294
353 345 345 347 356 3 6 12 14 19 18 18 14 10 4 355 345 333 329 326 326 324 324 322 337 359 14 7 350 350 338 328 315 307 291 286 283 269 276 287 294 289 283
18 28 24 18 12 5 10 24 26 19 12 10 16 18 23 23 17 13 20 32 25 13 354 344 350 347 353 357 357 355 348 333 310 299 300 300 283 267 259 273 286 284 274
52 52 49 50 47 44 43 46 57 55 45 34 26 27 28 26 25 23 29 30 30 25 15 3 357 356 353 345 340 343 342 340 322 296 299 292 291 307 295 302 291 278 278
60 53 53 54 57 58 60 63 60 51 42 30 22 17 11 4 360 6 8 1 1 2 357 351 344 341 342 343 337 341 344 344 346 303 321 296 304 300 306 315 303 283 274
53 52 53 48 47 46 36 34 43 38 34 28 36 34 33 28 22 9 357 7 7 354 343 334 320 342 347 344 346 344 342 343 348 358 330 311 292 299 318 320 316 289 274
56 52 48 39 35 39 29 31 42 35 34 41 47 44 42 37 35 28 25 19 14 9 1 352 350 343 339 338 335 337 338 342 344 344 328 331 304 313 319 322 325 299 278
49 45 39 35 29 24 34 32 47 51 44 41 35 29 25 21 24 29 30 32 44 29 25 11 357 350 342 336 331 333 330 330 330 331 329 330 314 308 312 314 317 299 280
25 33 22 22 21 24 30 43 53 42 39 25 12 7 7 6 357 356 5 14 10 7 9 11 6 354 339 333 322 327 324 323 324 335 328 316 322 318 317 310 302 286 287
19 36 13 15 15 24 26 19 10 9 14 13 4 3 2 0 6 2 358 341 347 345 341 356 360 350 350 341 332 325 323 328 335 341 308 336 327 322 333 331 266 341 301
41 51 17 12 12 21 14 17 17 22 21 11 13 17 19 17 11 5 2 355 355 357 343 339 352 347 342 340 339 334 343 332 342 340 308 331 329 336 326 291 305 293 296